Location: Caltech
(34.1382°N, 118.1253°W)
Time: 17:14:10
(UTC-07:00)

Courier 1B - Visible Passes

Search period start: 17 April 2014 00:00
Search period end: 27 April 2014 00:00
Orbit: 963 x 1209 km, 28.3° (Epoch: 17 April)

Date Brightness Start Highest point End Pass type
(mag) Time Alt. Az. Time Alt. Az. Time Alt. Az.
17 Apr 8.8 19:53:20 10° WSW 19:58:53 29° SSW 20:04:21 10° SE visible
18 Apr 9.5 20:55:18 10° WSW 20:58:36 14° SSW 21:01:53 10° S visible
19 Apr 9.3 20:00:37 10° WSW 20:05:08 19° SSW 20:09:34 10° SSE visible
21 Apr 9.8 20:09:36 10° SW 20:11:17 11° SSW 20:12:56 10° SSW visible
